Date String (YYYY-MM-DD hh:mm:ss) UTC,Instrument flags,Ambient pressure (hPa),Sample flow (lpm),Bypass flow (lpm),Sample temperature (°C),Ambient temperature (°C),ASC tube jacket temperature (°C),LED temperature (°C),Box temperature (°C),Sample RH (%),Span deviation,Mass concentration (μg/m³),Mass concentration (μg/m³),Mass concentration (μg/m³)
DateTimeUTC,F1_M11,P_M11,Q1_M11,Q2_M11,T1_M11,T2_M11,T3_M11,T4_M11,T5_M11,U1_M11,ZSPAN_M11,X0_M11,X2_M11,X1_M11
2022-11-27 04:00:00,,0823.4,5.00,0.00,27.5,26.1,00.0,36.5,29.4,13.4,0000.0,0007.07,0001.60,0001.01
2022-11-27 04:01:00,,0823.3,5.00,0.00,27.5,26.1,00.0,36.5,29.4,13.5,0000.0,0005.60,0001.59,0001.01
2022-11-27 04:02:00,,0823.4,4.98,0.00,27.5,26.1,00.0,36.5,29.4,13.5,0000.0,0004.12,0001.57,0001.01
2022-11-27 04:03:00,,0823.3,5.00,0.00,27.5,26.1,00.0,36.5,29.4,13.6,0000.0,0003.87,0001.51,0000.99
2022-11-27 04:04:00,,0823.3,5.00,0.00,27.5,26.1,00.0,36.5,29.4,13.7,0000.0,0005.09,0001.48,0000.97
2022-11-27 04:05:00,,0823.3,5.00,0.00,27.5,26.1,00.0,36.5,29.4,13.7,0000.0,0006.01,0001.53,0000.97
2022-11-27 04:06:00,,0823.4,5.01,0.00,27.5,26.1,00.0,36.5,29.4,13.7,0000.0,0004.88,0001.52,0000.97
2022-11-27 04:07:00,,0823.3,5.00,0.00,27.5,26.1,00.0,36.5,29.3,13.7,0000.0,0005.38,0001.55,0000.98
2022-11-27 04:08:00,,0823.3,4.99,0.00,27.5,26.0,00.0,36.5,29.3,13.7,0000.0,0006.38,0001.55,0000.97
2022-11-27 04:09:00,,0823.3,4.99,0.00,27.5,26.0,00.0,36.5,29.3,13.8,0000.0,0007.31,0001.52,0000.98
2022-11-27 04:10:00,,0823.3,5.00,0.00,27.5,26.0,00.0,36.5,29.3,13.9,0000.0,0007.68,0001.47,0000.98
2022-11-27 04:11:00,,0823.3,5.00,0.00,27.5,26.0,00.0,36.5,29.3,13.9,0000.0,0007.87,0001.45,0000.98
2022-11-27 04:12:00,,0823.3,5.00,0.00,27.5,26.0,00.0,36.5,29.3,13.9,0000.0,0007.92,0001.44,0000.98
2022-11-27 04:13:00,,0823.3,5.01,0.00,27.5,26.0,00.0,36.5,29.3,13.9,0000.0,0008.11,0001.45,0000.98
2022-11-27 04:14:00,,0823.3,5.00,0.00,27.5,26.0,00.0,36.5,29.3,14.1,0000.0,0008.87,0001.52,0000.98
2022-11-27 04:15:00,,0823.4,5.00,0.00,27.5,26.0,00.0,36.5,29.2,14.1,0000.0,0008.42,0001.55,0000.98
2022-11-27 04:16:00,,0823.3,5.00,0.00,27.5,26.0,00.0,36.5,29.2,14.2,0000.0,0007.78,0001.49,0000.99
2022-11-27 04:17:00,,0823.4,5.00,0.00,27.5,26.0,00.0,36.5,29.3,14.1,0000.0,0007.81,0001.48,0000.98
2022-11-27 04:18:00,,0823.3,4.99,0.00,27.5,25.9,00.0,36.4,29.2,14.2,0000.0,0007.61,0001.49,0000.98
2022-11-27 04:19:00,,0823.3,5.00,0.00,27.4,25.9,00.0,36.4,29.2,14.3,0000.0,0006.77,0001.49,0000.99
2022-11-27 04:20:00,,0823.3,5.00,0.00,27.4,25.9,00.0,36.4,29.2,14.3,0000.0,0006.32,0001.53,0001.00
2022-11-27 04:21:00,,0823.3,4.99,0.00,27.4,25.8,00.0,36.4,29.1,14.4,0000.0,0005.68,0001.55,0001.01
2022-11-27 04:22:00,,0823.3,5.00,0.00,27.4,25.7,00.0,36.4,29.1,14.5,0000.0,0005.38,0001.58,0001.04
2022-11-27 04:23:00,,0823.3,5.00,0.00,27.3,25.7,00.0,36.4,29.1,14.6,0000.0,0005.38,0001.59,0001.05
2022-11-27 04:24:00,,0823.4,5.00,0.00,27.3,25.6,00.0,36.4,29.0,14.7,0000.0,0005.22,0001.61,0001.07
2022-11-27 04:25:00,,0823.3,4.99,0.00,27.3,25.6,00.0,36.4,29.0,14.7,0000.0,0004.27,0001.60,0001.08
2022-11-27 04:26:00,,0823.4,5.00,0.00,27.3,25.6,00.0,36.3,28.9,14.6,0000.0,0004.44,0001.59,0001.09
2022-11-27 04:27:00,,0823.3,5.00,0.00,27.2,25.5,00.0,36.3,28.9,14.4,0000.0,0004.96,0001.62,0001.09
2022-11-27 04:28:00,,0823.4,5.00,0.00,27.2,25.5,00.0,36.3,28.9,14.6,0000.0,0004.99,0001.68,0001.10
2022-11-27 04:29:00,,0823.3,5.00,0.00,27.2,25.5,00.0,36.3,28.9,14.8,0000.0,0005.14,0001.70,0001.11
2022-11-27 04:30:00,,0823.4,5.00,0.00,27.2,25.4,00.0,36.3,28.9,15.1,0000.0,0005.35,0001.73,0001.11
2022-11-27 04:31:00,,0823.4,5.00,0.00,27.2,25.4,00.0,36.3,28.8,15.3,0000.0,0005.05,0001.72,0001.11
2022-11-27 04:32:00,,0823.3,5.00,0.00,27.1,25.3,00.0,36.2,28.9,15.4,0000.0,0005.98,0001.71,0001.09
2022-11-27 04:33:00,,0823.3,5.02,0.00,27.1,25.3,00.0,36.2,28.9,15.6,0000.0,0007.24,0001.73,0001.07
2022-11-27 04:34:00,,0823.4,5.00,0.00,27.1,25.3,00.0,36.2,28.8,15.7,0000.0,0007.48,0001.78,0001.07
2022-11-27 04:35:00,,0823.4,4.99,0.00,27.0,25.3,00.0,36.2,28.7,15.6,0000.0,0007.50,0001.82,0001.08
2022-11-27 04:36:00,,0823.3,5.02,0.00,27.0,25.2,00.0,36.1,28.8,15.7,0000.0,0007.26,0001.83,0001.08
2022-11-27 04:37:00,,0823.3,5.00,0.00,27.0,25.2,00.0,36.1,28.7,15.7,0000.0,0007.03,0001.83,0001.09
2022-11-27 04:38:00,,0823.4,5.00,0.00,27.0,25.1,00.0,36.1,28.7,15.7,0000.0,0006.41,0001.79,0001.08
2022-11-27 04:39:00,,0823.4,4.99,0.00,26.9,25.0,00.0,36.1,28.6,15.8,0000.0,0006.74,0001.80,0001.08
2022-11-27 04:40:00,,0823.4,4.99,0.00,26.9,24.9,00.0,36.0,28.6,16.0,0000.0,0006.68,0001.79,0001.09
2022-11-27 04:41:00,,0823.4,5.00,0.00,26.9,24.9,00.0,36.0,28.6,16.0,0000.0,0007.03,0001.82,0001.09
2022-11-27 04:42:00,,0823.4,4.99,0.00,26.8,24.9,00.0,36.0,28.6,16.0,0000.0,0008.06,0001.81,0001.09
2022-11-27 04:43:00,,0823.4,5.00,0.00,26.8,24.8,00.0,36.0,28.5,16.0,0000.0,0007.39,0001.83,0001.10
2022-11-27 04:44:00,,0823.4,5.02,0.00,26.7,24.7,00.0,35.9,28.4,15.9,0000.0,0006.39,0001.79,0001.11
2022-11-27 04:45:00,,0823.5,4.98,0.00,26.7,24.7,00.0,35.9,28.4,16.1,0000.0,0006.00,0001.75,0001.10
2022-11-27 04:46:00,,0823.5,5.02,0.00,26.6,24.6,00.0,35.9,28.3,16.1,0000.0,0006.05,0001.73,0001.09
2022-11-27 04:47:00,,0823.5,4.99,0.00,26.6,24.4,00.0,35.8,28.2,16.3,0000.0,0006.50,0001.71,0001.09
2022-11-27 04:48:00,,0823.4,4.99,0.00,26.5,24.4,00.0,35.8,28.2,16.2,0000.0,0007.45,0001.71,0001.08
2022-11-27 04:49:00,,0823.5,5.01,0.00,26.5,24.5,00.0,35.7,28.2,15.5,0000.0,0007.48,0001.72,0001.08
2022-11-27 04:50:00,,0823.4,5.01,0.00,26.5,24.6,00.0,35.7,28.3,15.0,0000.0,0007.14,0001.67,0001.07
2022-11-27 04:51:00,,0823.5,5.00,0.00,26.5,24.7,00.0,35.7,28.2,15.1,0000.0,0007.35,0001.64,0001.06
2022-11-27 04:52:00,,0823.5,5.00,0.00,26.5,24.7,00.0,35.7,28.2,15.9,0000.0,0007.52,0001.61,0001.07
2022-11-27 04:53:00,,0823.5,5.00,0.00,26.5,24.7,00.0,35.6,28.2,16.2,0000.0,0006.21,0001.60,0001.07
2022-11-27 04:54:00,,0823.5,5.00,0.00,26.5,24.6,00.0,35.6,28.2,16.4,0000.0,0006.42,0001.67,0001.08
2022-11-27 04:55:00,,0823.4,5.00,0.00,26.5,24.6,00.0,35.6,28.2,16.3,0000.0,0006.75,0001.68,0001.07
2022-11-27 04:56:00,,0823.5,5.00,0.00,26.5,24.7,00.0,35.6,28.3,16.4,0000.0,0007.74,0001.73,0001.08
2022-11-27 04:57:00,,0823.5,5.00,0.00,26.5,24.7,00.0,35.6,28.3,16.4,0000.0,0007.67,0001.73,0001.08
2022-11-27 04:58:00,,0823.5,4.99,0.00,26.5,24.8,00.0,35.5,28.2,16.5,0000.0,0007.74,0001.71,0001.08
2022-11-27 04:59:00,,0823.5,5.00,0.00,26.5,24.9,00.0,35.5,28.3,16.5,0000.0,0007.63,0001.73,0001.10
